QPF
0.00 0.00 0.02 0.03 0.02 0.03 0.03 0.02 0.02 0.02 0.02 0.01 0.00 0.00 0.00 0.02 0.08 0.13 0.13 0.06 0.04 0.03 0.03 0.09 0.12 0.03 0.02 0.02 0.03 0.04 0.04 0.03 0.05 0.06 0.08 0.10 0.08 0.04 0.03 0.03 0.08 0.09 0.02
0.00 0.00 0.03 0.07 0.06 0.06 0.05 0.02 0.03 0.04 0.02 0.01 0.01 0.00 0.01 0.04 0.11 0.11 0.07 0.02 0.01 0.02 0.03 0.09 0.11 0.03 0.02 0.03 0.06 0.11 0.14 0.11 0.07 0.05 0.06 0.09 0.10 0.05 0.03 0.07 0.16 0.11 0.02
0.00 0.00 0.02 0.06 0.07 0.06 0.05 0.02 0.08 0.09 0.03 0.02 0.02 0.02 0.01 0.03 0.05 0.05 0.04 0.02 0.01 0.00 0.02 0.07 0.09 0.04 0.02 0.04 0.07 0.10 0.17 0.18 0.13 0.07 0.06 0.26 0.30 0.12 0.08 0.15 0.17 0.07 0.06
0.00 0.00 0.02 0.04 0.08 0.08 0.04 0.04 0.15 0.17 0.10 0.04 0.02 0.01 0.00 0.02 0.08 0.14 0.13 0.04 0.01 0.00 0.01 0.05 0.08 0.04 0.03 0.06 0.11 0.11 0.11 0.09 0.07 0.07 0.18 0.37 0.38 0.20 0.17 0.16 0.13 0.05 0.07
0.00 0.01 0.10 0.12 0.09 0.07 0.06 0.12 0.25 0.22 0.18 0.08 0.02 0.00 0.00 0.02 0.06 0.12 0.09 0.04 0.00 0.00 0.01 0.03 0.05 0.03 0.02 0.03 0.05 0.06 0.06 0.06 0.09 0.16 0.23 0.25 0.29 0.18 0.15 0.14 0.15 0.08 0.09
0.00 0.02 0.07 0.09 0.09 0.09 0.13 0.21 0.23 0.23 0.27 0.13 0.02 0.01 0.04 0.06 0.06 0.10 0.10 0.04 0.01 0.00 0.00 0.01 0.02 0.02 0.01 0.01 0.01 0.01 0.02 0.09 0.19 0.17 0.20 0.18 0.18 0.15 0.14 0.16 0.17 0.14 0.08
0.00 0.02 0.03 0.08 0.09 0.11 0.16 0.22 0.22 0.21 0.27 0.19 0.04 0.05 0.08 0.05 0.05 0.08 0.10 0.04 0.01 0.00 0.00 0.00 0.01 0.03 0.03 0.02 0.01 0.00 0.00 0.04 0.06 0.09 0.20 0.21 0.14 0.11 0.14 0.18 0.18 0.15 0.11
0.00 0.01 0.02 0.04 0.05 0.09 0.14 0.19 0.17 0.18 0.22 0.17 0.08 0.07 0.05 0.06 0.05 0.07 0.05 0.02 0.00 0.00 0.00 0.00 0.03 0.03 0.02 0.01 0.00 0.00 0.00 0.01 0.00 0.01 0.08 0.16 0.19 0.14 0.11 0.14 0.14 0.09 0.10
0.00 0.00 0.01 0.01 0.01 0.02 0.07 0.13 0.15 0.17 0.17 0.10 0.06 0.03 0.04 0.06 0.04 0.03 0.01 0.00 0.00 0.00 0.00 0.01 0.02 0.02 0.00 0.00 0.00 0.00 0.00 0.00 0.00 0.00 0.02 0.10 0.07 0.04 0.05 0.07 0.08 0.11 0.13
0.00 0.00 0.00 0.01 0.01 0.02 0.02 0.06 0.11 0.13 0.13 0.09 0.06 0.04 0.03 0.03 0.03 0.02 0.00 0.00 0.00 0.00 0.00 0.00 0.01 0.01 0.00 0.00 0.00 0.00 0.00 0.00 0.00 0.01 0.02 0.06 0.03 0.00 0.00 0.01 0.01 0.02 0.03
0.00 0.00 0.00 0.00 0.00 0.02 0.05 0.06 0.09 0.10 0.09 0.06 0.04 0.04 0.05 0.04 0.05 0.06 0.01 0.00 0.00 0.00 0.00 0.01 0.01 0.01 0.00 0.00 0.00 0.00 0.00 0.00 0.00 0.01 0.02 0.02 0.02 0.01 0.00 0.00 0.00 0.00 0.00
0.00 0.00 0.00 0.00 0.00 0.01 0.08 0.22 0.33 0.20 0.11 0.06 0.02 0.02 0.09 0.05 0.09 0.08 0.01 0.00 0.01 0.00 0.00 0.00 0.01 0.00 0.00 0.00 0.00 0.01 0.01 0.00 0.00 0.02 0.02 0.01 0.03 0.02 0.01 0.00 0.00 0.00 0.00
0.00 0.00 0.00 0.00 0.00 0.00 0.07 0.21 0.34 0.35 0.25 0.20 0.04 0.01 0.05 0.02 0.02 0.03 0.01 0.02 0.03 0.00 0.00 0.00 0.00 0.00 0.00 0.00 0.00 0.00 0.00 0.01 0.02 0.05 0.02 0.01 0.03 0.04 0.04 0.02 0.01 0.00 0.00
0.00 0.00 0.00 0.00 0.00 0.00 0.01 0.02 0.07 0.12 0.12 0.13 0.06 0.01 0.01 0.00 0.00 0.00 0.00 0.01 0.01 0.00 0.00 0.00 0.00 0.00 0.00 0.00 0.00 0.00 0.01 0.02 0.12 0.14 0.08 0.04 0.05 0.07 0.07 0.04 0.02 0.01 0.01
0.00 0.00 0.00 0.00 0.00 0.00 0.00 0.00 0.01 0.02 0.03 0.04 0.05 0.06 0.01 0.00 0.00 0.00 0.00 0.00 0.00 0.00 0.00 0.00 0.00 0.00 0.00 0.00 0.00 0.00 0.02 0.05 0.14 0.12 0.14 0.12 0.13 0.17 0.13 0.10 0.06 0.04 0.02
0.00 0.00 0.00 0.00 0.00 0.00 0.00 0.00 0.00 0.01 0.01 0.01 0.01 0.03 0.02 0.00 0.00 0.00 0.00 0.00 0.00 0.00 0.00 0.00 0.00 0.00 0.00 0.00 0.00 0.00 0.00 0.03 0.09 0.10 0.13 0.18 0.16 0.12 0.12 0.15 0.14 0.11 0.08
0.00 0.00 0.00 0.00 0.00 0.00 0.00 0.00 0.00 0.00 0.00 0.00 0.01 0.01 0.00 0.00 0.00 0.00 0.00 0.00 0.00 0.00 0.00 0.00 0.00 0.00 0.00 0.00 0.00 0.00 0.00 0.00 0.00 0.01 0.01 0.04 0.08 0.11 0.08 0.09 0.12 0.13 0.11
0.00 0.00 0.00 0.00 0.00 0.00 0.00 0.00 0.00 0.00 0.00 0.00 0.01 0.01 0.00 0.00 0.00 0.00 0.00 0.00 0.00 0.00 0.00 0.00 0.00 0.00 0.00 0.00 0.00 0.00 0.00 0.00 0.00 0.00 0.00 0.00 0.01 0.03 0.03 0.01 0.03 0.07 0.10
0.00 0.00 0.00 0.00 0.00 0.00 0.00 0.00 0.01 0.01 0.01 0.01 0.00 0.02 0.03 0.01 0.00 0.00 0.00 0.00 0.00 0.00 0.00 0.00 0.00 0.00 0.00 0.00 0.00 0.00 0.00 0.00 0.00 0.00 0.00 0.00 0.00 0.00 0.00 0.00 0.00 0.01 0.03
0.00 0.00 0.00 0.00 0.00 0.01 0.02 0.03 0.10 0.12 0.10 0.07 0.04 0.03 0.05 0.04 0.01 0.00 0.00 0.00 0.00 0.00 0.03 0.03 0.04 0.03 0.01 0.00 0.00 0.01 0.00 0.00 0.00 0.00 0.00 0.00 0.00 0.00 0.00 0.00 0.00 0.00 0.00
0.00 0.00 0.00 0.00 0.01 0.03 0.04 0.06 0.15 0.32 0.26 0.22 0.18 0.07 0.10 0.12 0.06 0.03 0.02 0.00 0.00 0.01 0.02 0.07 0.21 0.23 0.13 0.01 0.01 0.01 0.00 0.00 0.00 0.00 0.00 0.00 0.00 0.00 0.00 0.00 0.00 0.00 0.00
0.00 0.00 0.00 0.00 0.01 0.01 0.03 0.05 0.12 0.17 0.08 0.09 0.12 0.14 0.11 0.08 0.04 0.03 0.05 0.04 0.02 0.04 0.10 0.18 0.32 0.39 0.21 0.03 0.02 0.04 0.02 0.01 0.00 0.00 0.00 0.00 0.00 0.00 0.00 0.00 0.00 0.00 0.00
0.00 0.00 0.00 0.00 0.01 0.01 0.01 0.03 0.05 0.08 0.10 0.19 0.21 0.22 0.20 0.15 0.08 0.04 0.05 0.05 0.04 0.06 0.12 0.13 0.26 0.43 0.27 0.09 0.03 0.08 0.13 0.13 0.03 0.00 0.00 0.00 0.00 0.00 0.00 0.00 0.00 0.00 0.00
0.00 0.00 0.00 0.00 0.00 0.01 0.01 0.03 0.07 0.10 0.14 0.16 0.20 0.20 0.13 0.12 0.09 0.06 0.07 0.05 0.04 0.05 0.12 0.13 0.19 0.34 0.41 0.29 0.13 0.04 0.04 0.06 0.04 0.04 0.01 0.00 0.00 0.00 0.00 0.00 0.00 0.00 0.00
0.00 0.00 0.00 0.00 0.00 0.00 0.01 0.04 0.07 0.08 0.09 0.11 0.13 0.11 0.13 0.10 0.05 0.04 0.08 0.04 0.03 0.05 0.11 0.18 0.28 0.36 0.44 0.37 0.25 0.15 0.09 0.04 0.02 0.05 0.08 0.02 0.00 0.00 0.00 0.00 0.00 0.00 0.00
0.00 0.00 0.00 0.00 0.00 0.00 0.01 0.01 0.03 0.05 0.07 0.08 0.06 0.05 0.06 0.09 0.11 0.12 0.16 0.10 0.05 0.04 0.08 0.14 0.24 0.32 0.41 0.43 0.31 0.20 0.14 0.06 0.01 0.01 0.04 0.04 0.02 0.00 0.00 0.00 0.00 0.00 0.00
MSLP
1008.36 1008.23 1008.25 1008.45 1008.80 1009.25 1009.71 1010.11 1010.39 1010.55 1010.60 1010.59 1010.61 1010.69 1010.86 1011.12 1011.43 1011.74 1012.01 1012.18 1012.26 1012.26 1012.21 1012.15 1012.12 1012.13 1012.19 1012.27 1012.35 1012.42 1012.47 1012.50 1012.53 1012.58 1012.65 1012.75 1012.87 1012.98 1013.06 1013.10 1013.09 1013.05 1013.01
1008.11 1008.10 1008.24 1008.56 1009.01 1009.53 1010.01 1010.41 1010.66 1010.77 1010.78 1010.75 1010.76 1010.85 1011.05 1011.34 1011.67 1012.00 1012.26 1012.42 1012.49 1012.48 1012.44 1012.39 1012.36 1012.38 1012.43 1012.49 1012.54 1012.57 1012.58 1012.58 1012.59 1012.64 1012.73 1012.85 1012.99 1013.12 1013.20 1013.23 1013.21 1013.16 1013.11
1007.87 1007.97 1008.23 1008.65 1009.18 1009.74 1010.25 1010.64 1010.88 1010.97 1010.97 1010.95 1010.96 1011.07 1011.28 1011.57 1011.89 1012.20 1012.43 1012.58 1012.63 1012.63 1012.60 1012.58 1012.58 1012.62 1012.67 1012.72 1012.74 1012.73 1012.70 1012.67 1012.67 1012.72 1012.82 1012.97 1013.13 1013.27 1013.37 1013.40 1013.38 1013.33 1013.28
1007.66 1007.85 1008.19 1008.69 1009.27 1009.86 1010.39 1010.79 1011.03 1011.13 1011.15 1011.14 1011.19 1011.31 1011.52 1011.80 1012.09 1012.36 1012.55 1012.67 1012.71 1012.72 1012.72 1012.74 1012.78 1012.85 1012.92 1012.96 1012.95 1012.91 1012.85 1012.79 1012.78 1012.83 1012.95 1013.12 1013.30 1013.45 1013.56 1013.60 1013.58 1013.53 1013.49
1007.50 1007.75 1008.14 1008.68 1009.29 1009.89 1010.43 1010.83 1011.09 1011.22 1011.28 1011.32 1011.40 1011.55 1011.77 1012.02 1012.28 1012.49 1012.64 1012.73 1012.76 1012.78 1012.82 1012.88 1012.98 1013.08 1013.17 1013.21 1013.19 1013.12 1013.03 1012.96 1012.94 1012.99 1013.12 1013.30 1013.49 1013.66 1013.77 1013.81 1013.79 1013.76 1013.73
1007.39 1007.68 1008.10 1008.64 1009.25 1009.86 1010.39 1010.79 1011.07 1011.25 1011.36 1011.46 1011.59 1011.78 1012.00 1012.24 1012.46 1012.63 1012.74 1012.79 1012.82 1012.86 1012.93 1013.04 1013.18 1013.32 1013.42 1013.46 1013.43 1013.34 1013.24 1013.16 1013.13 1013.19 1013.32 1013.51 1013.70 1013.86 1013.96 1014.00 1013.99 1013.96 1013.96
1007.36 1007.65 1008.08 1008.62 1009.21 1009.80 1010.31 1010.72 1011.02 1011.23 1011.40 1011.56 1011.75 1011.97 1012.22 1012.45 1012.65 1012.78 1012.86 1012.89 1012.92 1012.97 1013.06 1013.20 1013.37 1013.53 1013.64 1013.67 1013.64 1013.55 1013.44 1013.36 1013.34 1013.40 1013.54 1013.72 1013.90 1014.04 1014.13 1014.16 1014.15 1014.13 1014.14
1007.38 1007.68 1008.11 1008.64 1009.21 1009.77 1010.26 1010.66 1010.97 1011.21 1011.42 1011.63 1011.87 1012.13 1012.40 1012.64 1012.83 1012.95 1013.01 1013.03 1013.06 1013.12 1013.22 1013.37 1013.54 1013.70 1013.80 1013.83 1013.79 1013.70 1013.60 1013.54 1013.53 1013.61 1013.74 1013.91 1014.07 1014.19 1014.26 1014.26 1014.24 1014.23 1014.26
1007.45 1007.75 1008.18 1008.70 1009.26 1009.79 1010.26 1010.64 1010.95 1011.20 1011.44 1011.69 1011.96 1012.25 1012.54 1012.80 1012.99 1013.11 1013.18 1013.20 1013.23 1013.29 1013.39 1013.53 1013.68 1013.81 1013.89 1013.91 1013.87 1013.79 1013.71 1013.67 1013.70 1013.79 1013.93 1014.09 1014.22 1014.31 1014.34 1014.33 1014.30 1014.29 1014.32
1007.51 1007.84 1008.28 1008.81 1009.35 1009.87 1010.32 1010.68 1010.97 1011.21 1011.46 1011.72 1012.01 1012.32 1012.63 1012.90 1013.11 1013.25 1013.33 1013.37 1013.40 1013.45 1013.54 1013.64 1013.76 1013.85 1013.91 1013.91 1013.87 1013.81 1013.77 1013.78 1013.84 1013.95 1014.10 1014.25 1014.36 1014.42 1014.42 1014.38 1014.34 1014.32 1014.37
1007.53 1007.88 1008.36 1008.90 1009.45 1009.96 1010.39 1010.73 1011.00 1011.23 1011.46 1011.71 1012.00 1012.31 1012.63 1012.92 1013.15 1013.32 1013.43 1013.49 1013.53 1013.58 1013.64 1013.71 1013.78 1013.84 1013.86 1013.85 1013.82 1013.80 1013.80 1013.86 1013.97 1014.12 1014.28 1014.42 1014.51 1014.54 1014.51 1014.45 1014.40 1014.38 1014.43
1007.45 1007.84 1008.35 1008.92 1009.49 1010.00 1010.43 1010.75 1011.00 1011.21 1011.41 1011.64 1011.91 1012.22 1012.54 1012.84 1013.10 1013.30 1013.43 1013.52 1013.59 1013.64 1013.68 1013.73 1013.76 1013.78 1013.78 1013.77 1013.76 1013.78 1013.84 1013.95 1014.11 1014.29 1014.47 1014.61 1014.68 1014.69 1014.64 1014.57 1014.51 1014.50 1014.54
1007.26 1007.69 1008.23 1008.82 1009.41 1009.93 1010.36 1010.68 1010.92 1011.11 1011.29 1011.50 1011.75 1012.04 1012.34 1012.65 1012.92 1013.15 1013.33 1013.46 1013.55 1013.62 1013.66 1013.69 1013.71 1013.71 1013.71 1013.71 1013.73 1013.80 1013.91 1014.08 1014.28 1014.50 1014.69 1014.82 1014.89 1014.88 1014.83 1014.75 1014.69 1014.68 1014.73
1006.94 1007.40 1007.96 1008.57 1009.17 1009.71 1010.15 1010.49 1010.74 1010.93 1011.10 1011.29 1011.51 1011.77 1012.06 1012.36 1012.64 1012.90 1013.11 1013.28 1013.42 1013.52 1013.59 1013.63 1013.65 1013.67 1013.68 1013.71 1013.77 1013.89 1014.05 1014.26 1014.50 1014.73 1014.92 1015.05 1015.10 1015.09 1015.04 1014.97 1014.93 1014.93 1014.98
1006.55 1007.01 1007.57 1008.19 1008.79 1009.35 1009.81 1010.17 1010.45 1010.66 1010.85 1011.03 1011.23 1011.46 1011.72 1012.00 1012.29 1012.56 1012.80 1013.02 1013.21 1013.36 1013.48 1013.56 1013.62 1013.67 1013.72 1013.79 1013.90 1014.06 1014.27 1014.50 1014.75 1014.98 1015.16 1015.27 1015.31 1015.30 1015.25 1015.20 1015.18 1015.20 1015.26
1006.14 1006.59 1007.13 1007.72 1008.32 1008.88 1009.37 1009.78 1010.11 1010.37 1010.58 1010.77 1010.96 1011.17 1011.39 1011.64 1011.91 1012.18 1012.46 1012.72 1012.96 1013.18 1013.36 1013.51 1013.64 1013.75 1013.85 1013.98 1014.13 1014.33 1014.55 1014.79 1015.03 1015.23 1015.38 1015.46 1015.49 1015.47 1015.43 1015.41 1015.42 1015.47 1015.55
1005.78 1006.20 1006.69 1007.25 1007.83 1008.40 1008.93 1009.39 1009.78 1010.10 1010.36 1010.57 1010.75 1010.93 1011.12 1011.33 1011.56 1011.83 1012.11 1012.41 1012.71 1013.00 1013.27 1013.50 1013.71 1013.89 1014.07 1014.25 1014.44 1014.66 1014.89 1015.12 1015.32 1015.48 1015.58 1015.62 1015.62 1015.59 1015.57 1015.57 1015.62 1015.71 1015.81
1005.53 1005.91 1006.36 1006.87 1007.42 1007.99 1008.55 1009.07 1009.53 1009.92 1010.23 1010.47 1010.65 1010.80 1010.94 1011.10 1011.30 1011.54 1011.82 1012.15 1012.50 1012.86 1013.20 1013.53 1013.82 1014.09 1014.34 1014.57 1014.81 1015.04 1015.27 1015.47 1015.62 1015.72 1015.77 1015.76 1015.72 1015.68 1015.66 1015.69 1015.77 1015.90 1016.04
1005.43 1005.78 1006.18 1006.64 1007.15 1007.72 1008.30 1008.87 1009.40 1009.85 1010.21 1010.48 1010.66 1010.78 1010.88 1010.98 1011.13 1011.33 1011.61 1011.95 1012.34 1012.76 1013.18 1013.59 1013.97 1014.32 1014.63 1014.92 1015.19 1015.44 1015.65 1015.82 1015.93 1015.97 1015.96 1015.90 1015.82 1015.76 1015.75 1015.80 1015.91 1016.07 1016.23
1005.48 1005.81 1006.17 1006.58 1007.07 1007.61 1008.21 1008.82 1009.39 1009.90 1010.30 1010.59 1010.76 1010.86 1010.90 1010.95 1011.04 1011.21 1011.47 1011.81 1012.23 1012.70 1013.19 1013.66 1014.11 1014.53 1014.91 1015.24 1015.54 1015.80 1016.01 1016.15 1016.23 1016.23 1016.17 1016.07 1015.96 1015.88 1015.86 1015.92 1016.05 1016.24 1016.43
1005.66 1005.99 1006.33 1006.70 1007.15 1007.68 1008.27 1008.89 1009.49 1010.03 1010.45 1010.74 1010.91 1010.97 1010.97 1010.97 1011.02 1011.15 1011.39 1011.73 1012.17 1012.67 1013.19 1013.72 1014.22 1014.69 1015.11 1015.49 1015.82 1016.09 1016.31 1016.45 1016.50 1016.48 1016.39 1016.27 1016.14 1016.05 1016.03 1016.09 1016.24 1016.43 1016.65
1005.93 1006.28 1006.61 1006.95 1007.36 1007.86 1008.42 1009.03 1009.63 1010.17 1010.60 1010.88 1011.03 1011.06 1011.03 1011.00 1011.01 1011.11 1011.33 1011.68 1012.12 1012.63 1013.18 1013.73 1014.25 1014.75 1015.20 1015.60 1015.96 1016.26 1016.49 1016.65 1016.72 1016.70 1016.62 1016.49 1016.36 1016.27 1016.25 1016.31 1016.45 1016.66 1016.88
1006.25 1006.63 1006.95 1007.28 1007.65 1008.09 1008.62 1009.19 1009.76 1010.27 1010.67 1010.94 1011.07 1011.08 1011.04 1010.98 1010.98 1011.07 1011.28 1011.62 1012.05 1012.56 1013.10 1013.65 1014.18 1014.67 1015.13 1015.55 1015.92 1016.25 1016.51 1016.70 1016.81 1016.83 1016.78 1016.68 1016.57 1016.49 1016.47 1016.53 1016.67 1016.88 1017.11
1006.58 1006.99 1007.31 1007.61 1007.93 1008.32 1008.78 1009.29 1009.81 1010.28 1010.64 1010.88 1011.00 1011.00 1010.95 1010.90 1010.90 1010.99 1011.21 1011.54 1011.96 1012.45 1012.97 1013.49 1013.98 1014.45 1014.89 1015.30 1015.68 1016.03 1016.33 1016.57 1016.73 1016.81 1016.82 1016.76 1016.69 1016.63 1016.63 1016.69 1016.84 1017.04 1017.28
1006.89 1007.32 1007.63 1007.89 1008.17 1008.49 1008.88 1009.32 1009.76 1010.18 1010.50 1010.72 1010.82 1010.83 1010.79 1010.76 1010.78 1010.89 1011.11 1011.43 1011.84 1012.30 1012.77 1013.24 1013.68 1014.10 1014.49 1014.87 1015.24 1015.60 1015.93 1016.22 1016.45 1016.60 1016.67 1016.68 1016.66 1016.64 1016.66 1016.74 1016.89 1017.10 1017.35
1007.15 1007.57 1007.87 1008.09 1008.31 1008.57 1008.88 1009.24 1009.63 1009.98 1010.27 1010.46 1010.56 1010.59 1010.58 1010.58 1010.63 1010.76 1011.00 1011.32 1011.70 1012.12 1012.54 1012.94 1013.31 1013.66 1013.99 1014.32 1014.66 1015.01 1015.36 1015.68 1015.97 1016.18 1016.33 1016.41 1016.45 1016.48 1016.53 1016.63 1016.79 1017.01 1017.27
Thickness
5819 5819 5814 5810 5805 5800 5795 5791 5787 5785 5783 5781 5779 5777 5774 5773 5771 5770 5768 5767 5766 5765 5763 5763 5763 5765 5767 5769 5770 5771 5773 5774 5774 5774 5773 5772 5770 5771 5772 5775 5777 5778 5779
5825 5819 5813 5809 5804 5799 5795 5791 5787 5784 5781 5780 5778 5776 5773 5771 5769 5768 5767 5765 5764 5762 5760 5758 5758 5759 5762 5765 5767 5768 5769 5771 5772 5772 5771 5770 5770 5770 5771 5774 5775 5775 5776
5826 5818 5812 5808 5803 5799 5795 5791 5787 5783 5780 5778 5776 5774 5771 5769 5767 5766 5764 5763 5761 5760 5757 5755 5754 5754 5757 5761 5764 5765 5767 5769 5770 5770 5770 5770 5769 5769 5770 5772 5773 5773 5773
5826 5818 5813 5807 5802 5798 5794 5790 5786 5782 5779 5777 5774 5771 5769 5767 5764 5763 5762 5760 5759 5757 5755 5753 5751 5752 5754 5759 5762 5764 5766 5767 5768 5768 5769 5769 5769 5769 5769 5770 5770 5771 5771
5826 5820 5813 5806 5801 5797 5793 5789 5785 5781 5778 5776 5773 5769 5767 5764 5762 5760 5760 5758 5757 5755 5754 5752 5751 5751 5753 5757 5759 5762 5763 5764 5764 5765 5766 5766 5767 5768 5768 5768 5768 5769 5769
5823 5818 5810 5805 5800 5795 5791 5788 5784 5781 5778 5775 5771 5768 5765 5763 5760 5759 5758 5757 5756 5755 5753 5751 5751 5751 5752 5755 5757 5759 5761 5761 5762 5762 5763 5763 5764 5765 5766 5767 5767 5767 5767
5820 5815 5807 5802 5798 5794 5790 5787 5783 5780 5777 5773 5770 5766 5763 5761 5759 5757 5756 5754 5754 5753 5753 5752 5751 5750 5751 5753 5755 5756 5757 5758 5761 5760 5760 5760 5761 5763 5764 5765 5765 5766 5765
5818 5814 5806 5800 5796 5793 5789 5785 5782 5779 5775 5772 5769 5765 5762 5760 5758 5756 5754 5752 5751 5751 5752 5752 5751 5750 5750 5751 5752 5753 5755 5756 5760 5760 5759 5759 5759 5760 5762 5762 5763 5763 5763
5818 5814 5807 5801 5797 5793 5789 5785 5781 5778 5775 5771 5768 5765 5761 5758 5756 5754 5752 5750 5750 5750 5750 5750 5750 5750 5750 5751 5751 5752 5754 5756 5757 5760 5758 5757 5757 5758 5760 5760 5761 5761 5762
5816 5815 5811 5805 5799 5794 5788 5784 5780 5776 5773 5770 5767 5764 5760 5757 5754 5752 5750 5748 5748 5747 5747 5747 5747 5748 5749 5750 5751 5751 5753 5754 5757 5757 5754 5754 5755 5755 5757 5758 5758 5758 5759
5814 5814 5813 5807 5802 5797 5789 5783 5779 5774 5771 5768 5765 5762 5758 5756 5753 5751 5749 5746 5745 5744 5744 5743 5744 5746 5747 5748 5749 5750 5750 5753 5754 5752 5751 5751 5752 5753 5754 5755 5755 5755 5756
5811 5812 5812 5808 5802 5798 5791 5782 5778 5774 5770 5768 5765 5761 5758 5757 5753 5750 5747 5745 5743 5741 5741 5741 5742 5743 5744 5745 5747 5748 5749 5751 5750 5748 5747 5748 5750 5751 5752 5753 5752 5753 5753
5812 5812 5811 5808 5802 5796 5787 5781 5776 5773 5769 5767 5766 5763 5759 5756 5752 5747 5744 5742 5740 5739 5740 5740 5740 5741 5744 5745 5747 5747 5748 5746 5744 5743 5743 5745 5747 5749 5750 5751 5750 5750 5751
5812 5809 5811 5808 5802 5795 5788 5782 5776 5772 5769 5767 5766 5765 5761 5758 5754 5750 5746 5741 5739 5738 5740 5740 5741 5741 5743 5745 5744 5743 5741 5739 5738 5738 5739 5741 5743 5745 5747 5748 5747 5747 5748
5811 5808 5808 5806 5801 5795 5788 5783 5777 5773 5771 5768 5767 5764 5761 5758 5754 5750 5749 5743 5741 5740 5739 5740 5740 5739 5738 5738 5738 5736 5735 5734 5732 5732 5734 5736 5738 5740 5742 5743 5743 5743 5744
5812 5809 5807 5804 5801 5795 5787 5782 5779 5775 5772 5769 5766 5763 5760 5757 5754 5750 5748 5744 5741 5739 5738 5738 5738 5734 5732 5731 5730 5730 5730 5730 5729 5729 5729 5731 5733 5735 5737 5738 5739 5739 5741
5814 5812 5807 5803 5800 5794 5788 5783 5779 5775 5770 5768 5765 5762 5758 5755 5753 5749 5746 5742 5739 5737 5736 5736 5734 5733 5728 5725 5724 5725 5725 5726 5727 5725 5725 5725 5726 5729 5730 5732 5734 5735 5737
5816 5812 5807 5803 5797 5792 5787 5783 5779 5775 5770 5766 5762 5760 5758 5754 5752 5749 5745 5741 5738 5736 5734 5731 5728 5727 5724 5722 5720 5721 5721 5721 5723 5722 5721 5721 5722 5722 5723 5726 5728 5731 5733
5816 5811 5805 5799 5793 5789 5784 5779 5777 5774 5769 5764 5760 5757 5755 5753 5750 5747 5743 5739 5737 5734 5731 5728 5725 5723 5720 5719 5717 5717 5717 5717 5718 5719 5718 5718 5718 5718 5718 5720 5724 5726 5728
5815 5810 5804 5797 5791 5786 5780 5775 5772 5768 5765 5764 5759 5755 5752 5751 5749 5747 5741 5737 5734 5730 5727 5725 5721 5720 5718 5715 5714 5711 5712 5713 5715 5714 5714 5715 5715 5715 5716 5718 5720 5722 5724
5811 5806 5801 5793 5787 5780 5773 5767 5762 5759 5758 5756 5755 5752 5749 5747 5746 5744 5739 5735 5731 5727 5723 5721 5718 5715 5713 5712 5706 5702 5704 5709 5709 5709 5711 5711 5712 5712 5714 5717 5719 5720 5720
5802 5799 5795 5787 5781 5775 5769 5764 5760 5756 5754 5751 5749 5746 5743 5741 5740 5739 5734 5729 5727 5724 5720 5717 5713 5708 5707 5709 5702 5694 5690 5693 5700 5706 5707 5707 5707 5710 5712 5714 5717 5719 5718
5792 5788 5784 5778 5772 5768 5764 5759 5755 5750 5747 5744 5740 5738 5736 5735 5735 5733 5729 5725 5722 5720 5716 5713 5709 5704 5699 5702 5705 5696 5688 5685 5690 5698 5703 5704 5705 5705 5708 5711 5713 5715 5715
5784 5783 5778 5771 5765 5761 5758 5753 5747 5741 5736 5736 5735 5732 5730 5728 5727 5726 5723 5719 5716 5714 5712 5711 5708 5704 5698 5693 5696 5702 5703 5699 5692 5689 5696 5702 5703 5703 5704 5706 5708 5710 5711
5778 5776 5773 5767 5761 5758 5755 5750 5745 5740 5736 5733 5731 5727 5724 5723 5721 5718 5715 5712 5709 5707 5706 5706 5704 5702 5698 5693 5689 5693 5699 5704 5704 5693 5689 5695 5700 5703 5704 5705 5705 5707 5707
5770 5769 5767 5761 5756 5753 5749 5746 5740 5735 5731 5726 5722 5720 5717 5715 5713 5712 5709 5706 5704 5702 5701 5701 5700 5699 5697 5694 5691 5690 5694 5698 5699 5699 5694 5694 5695 5700 5703 5704 5704 5704 5704